When you browse on this site, cookies collect data to enhance your experience and personalize the content and advertising you see.
Visit our Privacy Policy to learn more. By continuing to use the site, you agree to this use of cookies and data.
  • En España
  • Lista de países
  • Para 7 días
  • Temperatura del agua
  • Mapa Satelital
  • El tiempo en el mapa
  • Informadores
  • user-avatar
    Iniciar sesión

    Tiempo cada hora Velino

    Hoy, 19 Julio, Viernes

    Tiempo Temperatura Precipitaciones Viento Presión Humedad
    00:00 +13°C° 0.8 mm 4 mps 733 mmHg 97%
    01:00 +13°C° 0.8 mm 4 mps 733 mmHg 97%
    02:00 +13°C° 0.8 mm 4 mps 734 mmHg 97%
    03:00 +13°C° 0.4 mm 5 mps 734 mmHg 97%
    04:00 +13°C° 0.4 mm 5 mps 734 mmHg 97%
    05:00 +13°C° 0.4 mm 5 mps 734 mmHg 97%
    06:00 +13°C° 0.2 mm 5 mps 735 mmHg 97%
    07:00 +13°C° 0.2 mm 5 mps 735 mmHg 96%
    08:00 +14°C° 0.2 mm 5 mps 735 mmHg 96%
    09:00 +14°C° 0.3 mm 5 mps 736 mmHg 94%
    10:00 +15°C° 0.3 mm 6 mps 736 mmHg 93%
    11:00 +15°C° 0.3 mm 6 mps 737 mmHg 91%
    12:00 +16°C° 0.2 mm 6 mps 737 mmHg 88%
    13:00 +16°C° 0.2 mm 6 mps 737 mmHg 85%
    14:00 +17°C° 0.2 mm 6 mps 737 mmHg 83%
    15:00 +17°C° 0 mm 6 mps 738 mmHg 80%
    16:00 +17°C° 0 mm 5 mps 738 mmHg 78%
    17:00 +19°C° 0 mm 5 mps 738 mmHg 75%
    18:00 +18°C° 0 mm 4 mps 739 mmHg 79%
    19:00 +15°C° 0 mm 4 mps 739 mmHg 82%
    20:00 +14°C° 0 mm 3 mps 739 mmHg 86%
    21:00 +14°C° 0 mm 3 mps 739 mmHg 87%
    22:00 +13°C° 0 mm 3 mps 739 mmHg 89%
    23:00 +13°C° 0 mm 4 mps 740 mmHg 90%

    Mañana, 20 Julio, Sábado

    Tiempo Temperatura Precipitaciones Viento Presión Humedad
    00:00 +12°C° 0 mm 3 mps 740 mmHg 92%
    01:00 +12°C° 0 mm 3 mps 740 mmHg 93%
    02:00 +11°C° 0 mm 3 mps 740 mmHg 94%
    03:00 +11°C° 0 mm 3 mps 740 mmHg 94%
    04:00 +11°C° 0 mm 3 mps 741 mmHg 94%
    05:00 +11°C° 0 mm 3 mps 741 mmHg 94%
    06:00 +13°C° 0 mm 3 mps 741 mmHg 89%
    07:00 +14°C° 0 mm 3 mps 742 mmHg 85%
    08:00 +17°C° 0 mm 3 mps 742 mmHg 80%
    09:00 +18°C° 0 mm 4 mps 742 mmHg 75%
    10:00 +20°C° 0 mm 4 mps 742 mmHg 70%
    11:00 +21°C° 0 mm 4 mps 743 mmHg 64%
    12:00 +22°C° 0 mm 4 mps 743 mmHg 63%
    13:00 +22°C° 0 mm 5 mps 743 mmHg 62%
    14:00 +22°C° 0 mm 5 mps 743 mmHg 61%
    15:00 +22°C° 0 mm 4 mps 743 mmHg 64%
    16:00 +22°C° 0 mm 4 mps 743 mmHg 66%
    17:00 +21°C° 0 mm 3 mps 743 mmHg 69%
    18:00 +20°C° 0 mm 3 mps 743 mmHg 73%
    19:00 +18°C° 0 mm 3 mps 743 mmHg 77%
    20:00 +16°C° 0 mm 3 mps 744 mmHg 82%
    21:00 +16°C° 0 mm 3 mps 744 mmHg 83%
    22:00 +14°C° 0 mm 3 mps 744 mmHg 85%
    23:00 +13°C° 0 mm 3 mps 744 mmHg 87%

    Pasado mañana, 21 Julio, Domingo

    Tiempo Temperatura Precipitaciones Viento Presión Humedad
    00:00 +14°C° 0 mm 2 mps 744 mmHg 88%
    01:00 +13°C° 0 mm 2 mps 744 mmHg 90%
    02:00 +13°C° 0 mm 2 mps 744 mmHg 91%
    03:00 +13°C° 0 mm 2 mps 744 mmHg 92%
    04:00 +13°C° 0 mm 2 mps 745 mmHg 92%
    05:00 +13°C° 0 mm 1 mps 745 mmHg 93%
    06:00 +15°C° 0 mm 1 mps 745 mmHg 88%
    07:00 +18°C° 0 mm 1 mps 745 mmHg 83%
    08:00 +20°C° 0 mm 1 mps 745 mmHg 78%
    09:00 +21°C° 0 mm 1 mps 745 mmHg 73%
    10:00 +22°C° 0 mm 1 mps 745 mmHg 68%
    11:00 +23°C° 0 mm 2 mps 745 mmHg 64%
    12:00 +24°C° 0 mm 2 mps 745 mmHg 62%
    13:00 +24°C° 0 mm 2 mps 745 mmHg 61%
    14:00 +25°C° 0 mm 2 mps 745 mmHg 59%
    15:00 +25°C° 0 mm 2 mps 745 mmHg 62%
    16:00 +25°C° 0 mm 2 mps 745 mmHg 65%
    17:00 +24°C° 0 mm 1 mps 745 mmHg 67%
    18:00 +23°C° 0 mm 1 mps 744 mmHg 72%
    19:00 +21°C° 0 mm 1 mps 744 mmHg 77%
    20:00 +17°C° 0 mm 0 mps 744 mmHg 83%
    21:00 +16°C° 0 mm 0 mps 744 mmHg 84%
    22:00 +18°C° 0 mm 1 mps 744 mmHg 85%
    23:00 +16°C° 0 mm 1 mps 744 mmHg 86%

    22 Julio, Lunes

    Tiempo Temperatura Precipitaciones Viento Presión Humedad
    00:00 +16°C° 0 mm 1 mps 744 mmHg 87%
    01:00 +15°C° 0 mm 1 mps 744 mmHg 88%
    02:00 +15°C° 0 mm 2 mps 743 mmHg 90%
    03:00 +15°C° 0 mm 2 mps 743 mmHg 90%
    04:00 +15°C° 0 mm 2 mps 743 mmHg 90%
    05:00 +15°C° 0 mm 2 mps 743 mmHg 90%
    06:00 +17°C° 0 mm 2 mps 742 mmHg 88%
    07:00 +18°C° 0 mm 2 mps 742 mmHg 85%
    08:00 +19°C° 0 mm 3 mps 742 mmHg 83%
    09:00 +19°C° 0.4 mm 3 mps 742 mmHg 84%
    10:00 +19°C° 0.4 mm 3 mps 742 mmHg 86%
    11:00 +19°C° 0.4 mm 3 mps 742 mmHg 87%
    12:00 +19°C° 0.3 mm 2 mps 741 mmHg 89%
    13:00 +18°C° 0.3 mm 2 mps 741 mmHg 91%
    14:00 +19°C° 0.3 mm 1 mps 741 mmHg 92%
    15:00 +19°C° 1.5 mm 1 mps 741 mmHg 93%
    16:00 +18°C° 1.5 mm 2 mps 741 mmHg 95%
    17:00 +18°C° 1.5 mm 2 mps 741 mmHg 96%
    18:00 +17°C° 0.1 mm 2 mps 741 mmHg 96%
    19:00 +17°C° 0.1 mm 2 mps 741 mmHg 97%
    20:00 +17°C° 0.1 mm 2 mps 740 mmHg 97%
    21:00 +17°C° 0 mm 2 mps 740 mmHg 97%
    22:00 +16°C° 0 mm 2 mps 740 mmHg 97%
    23:00 +16°C° 0 mm 2 mps 740 mmHg 97%

    23 Julio, Martes

    Tiempo Temperatura Precipitaciones Viento Presión Humedad
    00:00 +16°C° 0.2 mm 2 mps 740 mmHg 98%
    01:00 +16°C° 0.2 mm 2 mps 740 mmHg 98%
    02:00 +16°C° 0.2 mm 2 mps 740 mmHg 98%
    03:00 +16°C° 0.2 mm 2 mps 739 mmHg 98%
    04:00 +16°C° 0.2 mm 3 mps 739 mmHg 98%
    05:00 +16°C° 0.2 mm 3 mps 739 mmHg 98%
    06:00 +16°C° 0.1 mm 3 mps 740 mmHg 97%
    07:00 +15°C° 0.1 mm 4 mps 740 mmHg 96%
    08:00 +15°C° 0.1 mm 4 mps 740 mmHg 96%
    09:00 +15°C° 0 mm 4 mps 740 mmHg 94%
    10:00 +17°C° 0 mm 3 mps 740 mmHg 93%
    11:00 +17°C° 0 mm 3 mps 741 mmHg 92%
    12:00 +18°C° 0 mm 3 mps 741 mmHg 85%
    13:00 +19°C° 0 mm 3 mps 741 mmHg 78%
    14:00 +21°C° 0 mm 3 mps 741 mmHg 70%
    15:00 +21°C° 0.1 mm 2 mps 741 mmHg 72%
    16:00 +21°C° 0.1 mm 2 mps 741 mmHg 73%
    17:00 +23°C° 0.1 mm 2 mps 741 mmHg 74%
    18:00 +20°C° 0.1 mm 2 mps 741 mmHg 77%
    19:00 +19°C° 0.1 mm 2 mps 741 mmHg 80%
    20:00 +17°C° 0.1 mm 2 mps 741 mmHg 83%
    21:00 +16°C° 0 mm 2 mps 741 mmHg 86%
    22:00 +15°C° 0 mm 2 mps 741 mmHg 88%
    23:00 +14°C° 0 mm 3 mps 741 mmHg 91%

    24 Julio, Miércoles

    Tiempo Temperatura Precipitaciones Viento Presión Humedad
    00:00 +13°C° 0 mm 3 mps 741 mmHg 91%
    01:00 +12°C° 0 mm 3 mps 741 mmHg 92%
    02:00 +12°C° 0 mm 3 mps 741 mmHg 92%
    03:00 +12°C° 0 mm 3 mps 741 mmHg 92%
    04:00 +11°C° 0 mm 3 mps 741 mmHg 92%
    05:00 +11°C° 0 mm 3 mps 741 mmHg 92%
    06:00 +12°C° 0 mm 4 mps 741 mmHg 88%
    07:00 +14°C° 0 mm 4 mps 741 mmHg 84%
    08:00 +15°C° 0 mm 4 mps 741 mmHg 79%
    09:00 +17°C° 0 mm 4 mps 741 mmHg 76%
    10:00 +18°C° 0 mm 4 mps 741 mmHg 73%
    11:00 +19°C° 0 mm 4 mps 741 mmHg 69%
    12:00 +19°C° 0 mm 4 mps 741 mmHg 70%
    13:00 +20°C° 0 mm 4 mps 741 mmHg 70%
    14:00 +20°C° 0 mm 5 mps 741 mmHg 70%
    15:00 +19°C° 0.3 mm 4 mps 741 mmHg 73%
    16:00 +19°C° 0.3 mm 4 mps 741 mmHg 76%
    17:00 +19°C° 0.3 mm 4 mps 740 mmHg 79%
    18:00 +18°C° 0.1 mm 4 mps 740 mmHg 83%
    19:00 +17°C° 0.1 mm 3 mps 740 mmHg 87%
    20:00 +16°C° 0.1 mm 3 mps 740 mmHg 91%
    21:00 +14°C° 0 mm 3 mps 740 mmHg 91%
    22:00 +14°C° 0 mm 3 mps 740 mmHg 92%
    23:00 +14°C° 0 mm 3 mps 740 mmHg 92%
    Mostrar más